Location: Bridgewater Hill Observatory
(43.5992°N, 72.6989°W)
Time: 10:21:22
(UTC-05:00)

Daily predictions for brighter satellites

Satellite Brightness Start Highest point End
(mag) Time Altitude Azimuth Time Altitude Azimuth Time Altitude Azimuth
Cosmos 494 Rocket 4.0 16:41:36 10° NNW 16:46:53 84° ENE 16:52:09 10° SSE
Cosmos 921 Rocket 4.5 16:45:18 10° SE 16:48:16 19° E 16:51:17 10° NE
Ariane Rocket 4.0 16:46:00 10° S 16:50:56 51° W 16:55:53 10° NNW
SJ-12 4.2 16:48:17 10° SSE 16:52:14 48° ENE 16:56:13 10° N
Cosmos 1536 Rocket 3.9 16:48:03 10° SSE 16:52:19 48° E 16:56:39 10° NNE
Cosmos 1844 3.9 16:47:20 10° SSW 16:52:53 74° WNW 16:58:28 10° NNE
Cosmos 2297 4.3 16:52:21 10° S 16:57:27 36° ESE 17:02:34 10° NE
YAOGAN 1 2.7 16:58:01 10° SSE 17:02:13 52° ENE 17:06:26 10° N
SPOT 3 Rocket 3.5 16:58:06 10° SSE 17:03:13 64° ENE 17:08:21 10° N
Nadezhda 3 Rocket 4.5 16:58:27 10° SSE 17:04:05 38° E 17:09:49 10° NNE
Cosmos 2278 Rocket 2.2 17:01:13 10° SSW 17:06:52 89° ESE 17:12:34 10° NNE
Meteor 1-18 Rocket 4.3 17:01:48 10° S 17:07:28 82° E 17:13:17 10° NNE
COSMOS 2487 2.5 17:04:31 10° NNW 17:08:05 59° ENE 17:11:37 10° SSE
USA 32 4.2 17:03:07 10° S 17:08:20 78° W 17:13:36 10° N
SL-8 R/B 3.8 17:05:09 10° WSW 17:09:55 73° NNW 17:14:01 14° ENE
Okean 1 3.3 17:06:12 10° S 17:10:14 67° E 17:14:17 10° NNE
Intercosmos 25 4.0 17:08:17 10° NNE 17:10:57 24° ENE 17:13:43 10° SE
EP 1 4.5 17:11:57 10° SSW 17:14:29 50° ESE 17:16:09 18° NE
SMAP 3.0 17:10:39 10° SSE 17:15:18 80° ENE 17:19:58 10° N
Cosmos 1346 Rocket 2.9 17:12:20 10° S 17:16:07 53° E 17:19:54 10° NNE
Cosmos 1666 4.1 17:15:13 10° NNE 17:17:57 18° ENE 17:20:41 10° ESE
Cosmos 1455 Rocket 3.6 17:13:55 10° NNW 17:18:17 64° W 17:22:40 10° S
SL-24 DEB 4.4 17:13:58 10° NNE 17:18:36 51° E 17:23:09 10° SSE
Genesis I 4.0 17:16:06 10° NW 17:19:58 56° WSW 17:23:47 10° SSE
NOSS 2-1 (D) 3.9 17:19:47 10° S 17:23:21 38° ESE 17:25:53 19° ENE
NOSS 2-1 (C) 4.0 17:20:28 10° S 17:24:02 38° ESE 17:26:33 19° ENE
Cosmos 1833 Rocket 2.7 17:18:38 10° NNW 17:24:13 56° ENE 17:29:43 10° SE
SKYMED 2 4.3 17:21:13 11° NE 17:24:54 32° E 17:28:47 10° SSE
ISS -1.5 17:23:57 10° WNW 17:26:33 21° N 17:28:02 16° NNE
Cosmos 1809 Rocket 4.4 17:24:33 10° N 17:30:44 78° E 17:36:51 10° SSE
Cosmos 2082 Rocket 2.1 17:25:39 10° NNW 17:31:20 74° ENE 17:37:01 10° SSE
IDEFIX/ARIANE 42P 2.8 17:27:10 10° S 17:32:21 73° WSW 17:37:34 10° NNW
OE (NEXTSAT) 4.4 17:31:25 10° W 17:35:00 76° NNW 17:36:45 28° ENE
Thor Agena Rocket 3.7 17:30:17 10° NNE 17:35:31 78° WNW 17:40:47 10° SSW
Cosmos 1500 3.6 17:35:39 10° NNW 17:39:28 64° W 17:43:17 10° S
Cosmos 1743 2.7 17:35:46 10° N 17:39:37 58° E 17:43:24 10° SSE
ASTRO F (AKARI) 4.1 17:38:28 17° NNE 17:40:48 77° ESE 17:43:57 10° S
Tiangong 1 1.1 17:38:21 10° WSW 17:41:23 63° S 17:42:20 37° ESE
NOSS 2-1 (E) 3.5 17:38:52 10° SSW 17:42:39 55° ESE 17:44:42 27° NE
TIMED 4.4 17:38:23 10° SSW 17:42:44 88° ESE 17:46:27 14° NNE
Okean 1-7 Rocket 3.6 17:38:24 10° S 17:42:49 61° E 17:47:15 10° NNE
Meteor 1-28 Rocket 4.1 17:46:16 29° E 17:46:16 29° E 17:49:31 10° SSE
Cosmos 1726 Rocket 4.3 17:42:51 10° NNE 17:46:48 30° ENE 17:50:44 10° SE
Meteor 1-19 Rocket 4.3 17:41:20 10° S 17:47:03 64° E 17:52:52 10° NNE
Cosmos 1934 Rocket 4.2 17:42:27 10° N 17:48:27 48° ENE 17:54:30 10° SSE
Cosmos 1484 Rocket 2.5 17:50:37 10° SSE 17:54:20 88° E 17:58:05 10° NNW
Okean 2 4.4 17:51:07 10° SSE 17:53:55 28° ESE 17:53:55 28° ESE
Cosmos 1535 Rocket 4.4 17:50:14 10° N 17:56:32 69° E 18:02:42 10° SSE
USA 234 3.3 17:53:20 21° NE 17:58:00 75° NW 18:04:31 10° WSW
Meteor 1-15 Rocket 4.5 17:54:46 10° N 18:00:28 48° ENE 18:06:03 10° SSE
Cosmos 1606 Rocket 3.6 18:01:37 10° N 18:06:03 56° E 18:10:26 10° SSE
CZ-4 R/B 4.2 18:03:51 10° SW 18:07:01 21° W 18:10:11 10° NW
Meteor 2-9 Rocket 4.0 18:03:47 10° N 18:09:13 68° ENE 18:14:30 10° SSE
Cosmos 2239 Rocket 4.4 18:03:04 10° N 18:09:19 87° E 18:15:28 10° S
Meteor 1-23 Rocket 4.2 18:05:26 10° S 18:11:03 63° E 18:14:53 21° NNE
Cosmos 2369 Rocket 3.8 18:07:03 10° SSE 18:08:55 17° SE 18:08:55 17° SE
COSMO-SKYMED 1 2.6 18:09:49 18° N 18:13:04 78° WNW 18:17:24 10° SSW
Abrixas 4.3 18:11:45 10° W 18:14:18 26° SW 18:15:00 24° S
NOSS 3-4 (A) 3.7 18:07:36 10° NW 18:14:38 81° NE 18:22:06 10° SE
NOSS 3-4 (C) 3.7 18:07:42 10° NW 18:14:44 81° NE 18:22:12 10° SE
Meteor 2-4 Rocket 3.4 18:09:50 10° S 18:15:10 78° E 18:19:05 19° NNE
CZ-3B DEB 3.4 18:15:48 10° W 18:20:30 47° NNW 18:25:58 26° NE
Cosmos 407 Rocket 3.4 18:15:31 10° NNW 18:20:38 61° ENE 18:21:59 45° ESE
Cosmos 1821 Rocket 4.0 18:15:11 10° N 18:21:17 80° W 18:27:23 10° S
Cosmos 2056 Rocket 3.4 18:16:42 10° SSW 18:22:03 76° ESE 18:23:51 43° NNE
NOAA 12 3.9 18:20:35 10° SSE 18:25:51 84° ENE 18:31:09 10° NNW
Cosmos 1025 Rocket 3.2 18:21:44 10° SSW 18:26:06 71° W 18:28:11 30° N
Cosmos 921 Rocket 4.2 18:22:12 10° SW 18:26:13 39° WNW 18:28:57 19° N
Cosmos 676 Rocket 4.5 18:25:41 10° NNW 18:29:29 42° NNE 18:29:29 42° NNE
Cosmos 1605 Rocket 3.8 18:25:43 10° N 18:32:01 72° E 18:38:12 10° SSE
Cosmos 1624 Rocket 4.0 18:29:54 10° SSW 18:35:05 78° WNW 18:36:48 43° N
METEOR-M 4.2 18:43:37 10° S 18:48:56 73° WSW 18:54:18 10° NNW
Cosmos 1666 4.4 18:50:14 10° NNW 18:53:43 32° W 18:57:11 10° SSW
BREEZE-M R/B 4.1 18:49:09 10° W 18:57:04 49° NNW 18:57:05 49° NNW
GEOS 3 Rocket 3.7 19:00:07 69° SW 19:00:09 69° SW 19:05:16 10° NW
Cosmos 1727 Rocket 4.0 19:04:30 10° SSW 19:10:43 78° W 19:10:53 78° WNW
FALCON 9 R/B 3.6 19:07:36 10° W 19:23:37 45° SSW 19:24:36 43° S
USA 234 4.3 19:40:41 34° NNW 19:40:41 34° NNW 19:46:11 10° W
Cosmos 2369 Rocket 4.4 19:49:17 10° SW 19:50:47 19° SW 19:50:47 19° SW
